[[{"header":{"parameterUnit":"m.s-1","parameterCategory":2,"la1":30.2992,"la2":30.254,"lo1":-89.0895,"lo2":-89.0443,"dy":0.0025,"dx":0.0025,"nx":19,"ny":19,"refTime":"2026-04-24T09:00:00:Z","depth":"0","parameterNumber":2,"parameterNumberName":"U-component_of_CURRENTS"},"data":[0,0,0,0.2462,0.2465,0.2575,0.2575,0.2645,0.2645,0,0,0,0,0,0,0,0,0,0,0,0.2415,0.2415,0.2462,0.2465,0.2574,0.2575,0.2645,0.2645,0,0,0,0,0,0,0,0,0,0,0,0.2414,0.2415,0.2416,0.2465,0.2574,0.2575,0.2645,0.2579,0,0,0,0,0,0,0,0,0,0,0.2481,0.2431,0.2415,0.2416,0.2466,0.2574,0.2575,0.2577,0.2583,0.2575,0,0.259,0,0.2623,0.2649,0.2649,0,0,0,0.2464,0.2425,0.2474,0.2416,0.2467,0.2574,0.2525,0.2581,0.2588,0.2583,0.2591,0.2595,0.2624,0.2649,0.2649,0.2667,0.2667,0,0,0.2458,0.2417,0.2469,0.2478,0.2491,0.2521,0.2528,0.2586,0.2578,0.2592,0.2597,0.2625,0.2649,0.265,0.2668,0.2667,0,0,0,0.2441,0.2412,0.246,0.2474,0.2502,0.2524,0.2532,0.2576,0.2597,0.2598,0.2626,0.2649,0.265,0.2668,0.2667,0.2618,0,0,0,0.2437,0.2403,0.2457,0.2431,0.2501,0.2546,0.252,0.2593,0.2601,0.2626,0.2649,0.265,0.2668,0.2668,0.262,0.2599,0,0,0,0.241,0.24,0.2416,0.2429,0.2481,0.2547,0.2571,0.2596,0.2618,0.2649,0.2651,0.2668,0.2668,0.2621,0.2602,0.2587,0,0,0,0.236,0.2381,0.2414,0.2434,0.248,0.2532,0.2571,0.2603,0.2625,0.265,0.2668,0.2668,0.2622,0.2604,0.2589,0.261,0.2604,0,0,0.2364,0.2379,0.2393,0.2427,0.2464,0.2517,0.2533,0.2579,0.2617,0.2644,0.2646,0.2619,0.2602,0.2587,0.2589,0.2584,0,0,0,0.2379,0.2386,0.2402,0.2429,0.2476,0.2501,0.2548,0.257,0.2605,0.2632,0.2626,0.2617,0.2609,0.2625,0.2621,0.2444,0.2666,0.2666,0.2666,0.233,0.2364,0.2378,0.2417,0.244,0.2485,0.2507,0.2545,0.2573,0.258,0.2581,0.2543,0.256,0.2557,0.2373,0.2587,0.2586,0.2586,0.2586,0.2326,0.2333,0.2356,0.2381,0.2405,0.2414,0.2469,0.2492,0.2514,0.2545,0.2539,0.2578,0.255,0.2355,0.2583,0.2584,0.2584,0.2584,0.2585,0.2283,0.2294,0.2307,0.2329,0.2336,0.2371,0.2388,0.2426,0.2474,0.2469,0.2499,0.25,0.2326,0.2463,0.2463,0.2463,0.2463,0.2462,0.2462,0.2239,0.2258,0.2256,0.2277,0.2276,0.2288,0.2334,0.2361,0.2411,0.245,0.245,0.2288,0.2506,0.2507,0.246,0.246,0.2461,0.2461,0.2461,0.2216,0.2212,0.2215,0.2213,0.2213,0.2202,0.2257,0.2319,0.2353,0.2382,0.2225,0.245,0.2471,0.2476,0.2477,0.2425,0.2425,0.2425,0.2425,0.2189,0.2192,0.2192,0.2182,0.2167,0.2169,0.2159,0.2199,0.2186,0.2137,0.2105,0.2102,0.2111,0.211,0.2123,0.2116,0.1973,0.1972,0.1972,0.2186,0.219,0.2181,0.2169,0.2148,0.213,0.208,0.2019,0.1991,0.1931,0.1842,0.1861,0.1836,0.1865,0.1854,0.1886,0.1875,0,0]},{"header":{"parameterUnit":"m.s-1","parameterCategory":2,"la1":30.2992,"la2":30.254,"lo1":-89.0895,"lo2":-89.0443,"dy":0.0025,"dx":0.0025,"nx":19,"ny":19,"refTime":"2026-04-24T09:00:00:Z","depth":"0","parameterNumber":3,"parameterNumberName":"V-component_of_CURRENTS"},"data":[0,0,0,-0.0554,-0.0556,-0.062,-0.062,-0.0521,-0.052,0,0,0,0,0,0,0,0,0,0,0,-0.0519,-0.052,-0.0554,-0.0556,-0.062,-0.062,-0.0521,-0.052,0,0,0,0,0,0,0,0,0,0,0,-0.0519,-0.052,-0.052,-0.0557,-0.062,-0.062,-0.0521,-0.0514,0,0,0,0,0,0,0,0,0,0,-0.0472,-0.046,-0.0519,-0.052,-0.0557,-0.062,-0.062,-0.0515,-0.0514,-0.0446,0,-0.0466,0,-0.05,-0.051,-0.051,0,0,0,-0.0538,-0.0461,-0.0496,-0.052,-0.0558,-0.062,-0.0586,-0.0516,-0.0514,-0.0443,-0.0465,-0.0463,-0.0498,-0.051,-0.0509,-0.0274,-0.0273,0,0,-0.0534,-0.0506,-0.0498,-0.0496,-0.0583,-0.0584,-0.0588,-0.0517,-0.0503,-0.0465,-0.0462,-0.0496,-0.0509,-0.0508,-0.0276,-0.0274,0,0,0,-0.0537,-0.0503,-0.0543,-0.0498,-0.053,-0.0587,-0.0591,-0.0506,-0.0525,-0.0461,-0.0495,-0.0508,-0.0506,-0.0278,-0.0275,-0.0216,0,0,0,-0.0534,-0.0507,-0.0542,-0.0522,-0.0533,-0.0541,-0.0581,-0.053,-0.0524,-0.0496,-0.0508,-0.0505,-0.0279,-0.0276,-0.0221,-0.0202,0,0,0,-0.0515,-0.0504,-0.052,-0.0521,-0.0561,-0.0545,-0.0559,-0.053,-0.0544,-0.051,-0.0504,-0.0281,-0.0277,-0.0226,-0.0209,-0.0144,0,0,0,-0.0472,-0.0498,-0.0518,-0.0535,-0.0561,-0.0552,-0.0561,-0.0546,-0.0517,-0.0507,-0.0279,-0.0275,-0.0228,-0.0213,-0.0149,-0.0119,-0.0095,0,0,-0.0487,-0.0499,-0.0507,-0.0528,-0.0508,-0.0541,-0.046,-0.0441,-0.0424,-0.0291,-0.0287,-0.022,-0.0209,-0.0145,0.0094,0.0111,0,0,0,-0.0498,-0.0496,-0.0494,-0.0486,-0.0486,-0.042,-0.0417,-0.0366,-0.0258,-0.0396,-0.0161,-0.0155,-0.0118,-0.0107,-0.0091,-0.0002,-0.0258,-0.0259,-0.0259,-0.046,-0.046,-0.0426,-0.0407,-0.0381,-0.0319,-0.0245,-0.0157,-0.0176,-0.0096,-0.0063,0.0086,0.0102,0.0113,0.0207,-0.0009,-0.0009,-0.0008,-0.0008,-0.0422,-0.038,-0.0346,-0.0319,-0.0242,-0.0169,-0.0042,-0.0023,0.0122,0.0078,0.0111,0.001,0.0132,0.0226,-0.0003,-0.0004,-0.0005,-0.0005,-0.0006,-0.0355,-0.0329,-0.0316,-0.024,-0.0142,-0.0079,0.0048,0.0118,0.0183,0.0234,0.0231,0.023,0.0271,0.0236,0.0237,0.0237,0.0237,0.0238,0.0238,-0.028,-0.0261,-0.0222,-0.0159,-0.0113,-0.0028,0.0096,0.0171,0.0271,0.0315,0.0315,0.0365,0.016,0.0103,0.0245,0.0243,0.0243,0.0242,0.0241,-0.0196,-0.0203,-0.0152,-0.0116,-0.0021,0.0078,0.0154,0.0301,0.0374,0.0437,0.0547,0.0373,0.0354,0.0342,0.0292,0.0473,0.0473,0.0473,0.0474,-0.014,-0.0139,-0.0086,-0.0038,0.0045,0.0132,0.03,0.0438,0.0603,0.07,0.0695,0.0661,0.0647,0.0643,0.0624,0.0579,0.0829,0.083,0.083,-0.0084,-0.0084,-0.0041,-0.0012,0.0072,0.0195,0.0382,0.0597,0.0801,0.0853,0.0824,0.0809,0.0761,0.0732,0.0718,0.0685,0.0606,0,0]}],[{"header":{"parameterUnit":"m.s-1","parameterCategory":2,"la1":30.2992,"la2":30.254,"lo1":-89.0895,"lo2":-89.0443,"dy":0.0025,"dx":0.0025,"nx":19,"ny":19,"refTime":"2026-04-24T09:00:00:Z","depth":"2","parameterNumber":2,"parameterNumberName":"U-component_of_CURRENTS"},"data":[0,0,0,0.1021,0.102,0.101,0.101,0.1051,0.1051,0,0,0,0,0,0,0,0,0,0,0,0.1031,0.1031,0.1021,0.102,0.1009,0.101,0.105,0.1051,0,0,0,0,0,0,0,0,0,0,0,0.1031,0.1031,0.1031,0.102,0.1009,0.101,0.105,0.1048,0,0,0,0,0,0,0,0,0,0,0.1052,0.1047,0.1031,0.1031,0.102,0.1009,0.101,0.1047,0.1048,0.1067,0,0.1061,0,0.105,0.1054,0.1054,0,0,0,0.1032,0.1046,0.1043,0.1031,0.102,0.1009,0.1018,0.1047,0.1048,0.1069,0.1061,0.1062,0.1051,0.1054,0.1054,0.1106,0.1107,0,0,0.1032,0.1032,0.1042,0.1043,0.1011,0.1018,0.1017,0.1047,0.1048,0.1061,0.1063,0.1051,0.1054,0.1055,0.1106,0.1107,0,0,0,0.1026,0.1033,0.1028,0.1042,0.1032,0.1017,0.1016,0.1046,0.1044,0.1063,0.1052,0.1055,0.1055,0.1106,0.1106,0.1117,0,0,0,0.1027,0.1028,0.1028,0.1029,0.1031,0.103,0.1015,0.1043,0.1045,0.1052,0.1055,0.1056,0.1106,0.1106,0.1116,0.1127,0,0,0,0.1032,0.1029,0.1026,0.1029,0.1018,0.1029,0.1029,0.1043,0.1038,0.1054,0.1056,0.1105,0.1106,0.1116,0.1125,0.1179,0,0,0,0.1036,0.0993,0.1026,0.0976,0.1018,0.0983,0.1029,0.1021,0.103,0.1055,0.1106,0.1106,0.1115,0.1124,0.1177,0.1236,0.1248,0,0,0.0974,0.0986,0.0954,0.0982,0.0945,0.0986,0.0975,0.1017,0.1052,0.1101,0.1102,0.1117,0.1125,0.1178,0.1269,0.128,0,0,0,0.0929,0.0926,0.0913,0.0908,0.0896,0.0942,0.0969,0.1008,0.1083,0.1057,0.1125,0.1131,0.1164,0.1196,0.1205,0.1109,0.1109,0.1109,0.1109,0.0898,0.0891,0.0865,0.0875,0.0872,0.0917,0.0963,0.1036,0.1056,0.1108,0.1146,0.1202,0.1235,0.1243,0.115,0.115,0.115,0.115,0.115,0.0866,0.0875,0.0879,0.0868,0.0912,0.0936,0.1006,0.1054,0.116,0.1163,0.1195,0.1213,0.1253,0.1151,0.1151,0.1151,0.1151,0.1151,0.1151,0.0896,0.09,0.0904,0.0922,0.0961,0.0998,0.1067,0.1121,0.1189,0.1226,0.1301,0.1301,0.1222,0.1263,0.1263,0.1264,0.1264,0.1264,0.1264,0.0952,0.0942,0.0975,0.0987,0.102,0.1065,0.113,0.1181,0.128,0.133,0.1331,0.1241,0.1237,0.123,0.1269,0.1268,0.1267,0.1267,0.1267,0.1026,0.1022,0.106,0.1091,0.1129,0.1153,0.1196,0.1316,0.1385,0.1447,0.1396,0.1391,0.1403,0.1396,0.1393,0.1472,0.1472,0.1472,0.1472,0.1095,0.1084,0.1159,0.1194,0.1218,0.1201,0.1263,0.1211,0.1286,0.1244,0.1252,0.12,0.12,0.1195,0.1192,0.1183,0.1207,0.1205,0.1204,0.1172,0.1171,0.1248,0.1249,0.1262,0.1246,0.1238,0.0995,0.091,0.1177,0.103,0.1488,0.1437,0.1426,0.1437,0.1426,0.1418,0,0]},{"header":{"parameterUnit":"m.s-1","parameterCategory":2,"la1":30.2992,"la2":30.254,"lo1":-89.0895,"lo2":-89.0443,"dy":0.0025,"dx":0.0025,"nx":19,"ny":19,"refTime":"2026-04-24T09:00:00:Z","depth":"2","parameterNumber":3,"parameterNumberName":"V-component_of_CURRENTS"},"data":[0,0,0,-0.0339,-0.034,-0.0392,-0.0392,-0.0408,-0.0408,0,0,0,0,0,0,0,0,0,0,0,-0.0326,-0.0326,-0.0339,-0.0341,-0.0392,-0.0392,-0.0408,-0.0408,0,0,0,0,0,0,0,0,0,0,0,-0.0325,-0.0326,-0.0327,-0.0341,-0.0392,-0.0392,-0.0408,-0.0381,0,0,0,0,0,0,0,0,0,0,-0.0337,-0.0325,-0.0326,-0.0327,-0.0341,-0.0392,-0.0392,-0.038,-0.0383,-0.037,0,-0.0387,0,-0.0396,-0.0408,-0.0408,0,0,0,-0.0339,-0.0323,-0.0344,-0.0327,-0.0342,-0.0392,-0.0368,-0.0382,-0.0385,-0.0373,-0.0387,-0.0388,-0.0396,-0.0408,-0.0408,-0.0368,-0.0367,0,0,-0.0336,-0.0326,-0.0343,-0.0346,-0.0364,-0.0367,-0.037,-0.0384,-0.0385,-0.0387,-0.0388,-0.0396,-0.0408,-0.0408,-0.0368,-0.0367,0,0,0,-0.0329,-0.0323,-0.0345,-0.0345,-0.0358,-0.0368,-0.0372,-0.0385,-0.0394,-0.0388,-0.0396,-0.0408,-0.0408,-0.0368,-0.0368,-0.0337,0,0,0,-0.0327,-0.032,-0.0344,-0.0337,-0.0358,-0.0377,-0.0372,-0.0394,-0.0395,-0.0396,-0.0408,-0.0408,-0.0369,-0.0368,-0.0339,-0.0305,0,0,0,-0.0322,-0.0319,-0.033,-0.0336,-0.036,-0.0377,-0.0387,-0.0394,-0.04,-0.0408,-0.0408,-0.0369,-0.0368,-0.034,-0.0309,-0.0237,0,0,0,-0.0302,-0.0311,-0.0329,-0.033,-0.036,-0.0357,-0.0388,-0.0403,-0.041,-0.0408,-0.0369,-0.0368,-0.0341,-0.0311,-0.024,-0.0056,-0.0028,0,0,-0.0299,-0.031,-0.0307,-0.0324,-0.0319,-0.0349,-0.0327,-0.0367,-0.0385,-0.0362,-0.0361,-0.0338,-0.0309,-0.0238,0.0005,0.0032,0,0,0,-0.0294,-0.0302,-0.0298,-0.0305,-0.0305,-0.0298,-0.0333,-0.0328,-0.0332,-0.0385,-0.0325,-0.0307,-0.0263,-0.0158,-0.0137,-0.0363,-0.0363,-0.0363,-0.0363,-0.0298,-0.0293,-0.0284,-0.0282,-0.0272,-0.027,-0.025,-0.0249,-0.0289,-0.0283,-0.0273,-0.0184,-0.0072,-0.0054,-0.0274,-0.0273,-0.0273,-0.0273,-0.0273,-0.0295,-0.0285,-0.0276,-0.0277,-0.0257,-0.0246,-0.0188,-0.0203,-0.0147,-0.0208,-0.0168,-0.012,-0.0028,-0.027,-0.0271,-0.0271,-0.0272,-0.0272,-0.0272,-0.0293,-0.0284,-0.0303,-0.0294,-0.0271,-0.0244,-0.0159,-0.0138,-0.0113,-0.0076,0.0046,0.0047,-0.0147,-0.0069,-0.0068,-0.0068,-0.0068,-0.0067,-0.0067,-0.0283,-0.0291,-0.0297,-0.0299,-0.0293,-0.0241,-0.0149,-0.0074,0.0066,0.0122,0.0124,-0.0114,-0.0121,-0.0134,-0.006,-0.0061,-0.0062,-0.0063,-0.0063,-0.026,-0.028,-0.0276,-0.0283,-0.0243,-0.0101,-0.0048,0.0195,0.0255,0.0376,0.026,0.025,0.027,0.0255,0.0252,0.0421,0.0421,0.0421,0.0421,-0.0243,-0.025,-0.0232,-0.021,-0.0151,-0.0022,0.0279,0.0511,0.0613,0.0682,0.067,0.0651,0.0627,0.0663,0.0638,0.0641,0.0911,0.0912,0.0912,-0.0219,-0.0217,-0.0184,-0.0165,-0.0099,0.0122,0.0504,0.0785,0.0893,0.0924,0.0676,0.0469,0.0407,0.0383,0.0405,0.0378,0.0369,0,0]}],[{"header":{"parameterUnit":"m.s-1","parameterCategory":2,"la1":30.2992,"la2":30.254,"lo1":-89.0895,"lo2":-89.0443,"dy":0.0025,"dx":0.0025,"nx":19,"ny":19,"refTime":"2026-04-24T09:00:00:Z","depth":"4","parameterNumber":2,"parameterNumberName":"U-component_of_CURRENTS"},"data":[0,0,0,-0.0447,-0.0447,-0.0423,-0.0422,-0.0331,-0.0331,0,0,0,0,0,0,0,0,0,0,0,-0.046,-0.0461,-0.0447,-0.0447,-0.0423,-0.0422,-0.0331,-0.0331,0,0,0,0,0,0,0,0,0,0,0,-0.046,-0.0461,-0.0461,-0.0447,-0.0423,-0.0422,-0.0332,-0.0361,0,0,0,0,0,0,0,0,0,0,-0.0391,-0.0417,-0.0461,-0.0461,-0.0447,-0.0423,-0.0422,-0.0363,-0.0359,-0.033,0,-0.0343,0,-0.0338,-0.0324,-0.0324,0,0,0,-0.0432,-0.042,-0.0416,-0.0461,-0.0447,-0.0423,-0.0429,-0.0361,-0.0357,-0.0325,-0.0342,-0.0339,-0.0336,-0.0324,-0.0323,-0.0133,-0.0132,0,0,-0.0433,-0.0446,-0.042,-0.0414,-0.0461,-0.043,-0.0429,-0.0359,-0.036,-0.0341,-0.0337,-0.0335,-0.0323,-0.0323,-0.0134,-0.0133,0,0,0,-0.0447,-0.0447,-0.0446,-0.0418,-0.042,-0.043,-0.0428,-0.0363,-0.0365,-0.0336,-0.0334,-0.0323,-0.0322,-0.0136,-0.0134,-0.006,0,0,0,-0.0447,-0.0456,-0.0447,-0.0453,-0.0423,-0.0399,-0.0434,-0.0369,-0.0361,-0.0334,-0.0323,-0.0321,-0.0137,-0.0135,-0.0065,-0.0082,0,0,0,-0.0458,-0.0457,-0.0462,-0.0454,-0.045,-0.0401,-0.0397,-0.0368,-0.036,-0.0324,-0.0321,-0.0138,-0.0135,-0.007,-0.0088,-0.0116,0,0,0,-0.046,-0.0461,-0.0462,-0.0455,-0.0451,-0.042,-0.0398,-0.0362,-0.0331,-0.0322,-0.0137,-0.0134,-0.0072,-0.0091,-0.0119,-0.0204,0,0,0,-0.0456,-0.0461,-0.0452,-0.0453,-0.0417,-0.0421,-0.0339,-0.029,-0.026,-0.0157,-0.0153,-0.0063,-0.0088,-0.0117,-0.0004,0,0,0,0,-0.0446,-0.0437,-0.0427,-0.041,-0.0397,-0.0333,-0.0299,-0.0247,-0.0116,-0.0229,-0.0015,-0.0034,-0.0055,-0.0107,-0.0117,-0.0118,-0.0118,-0.0119,-0.0119,-0.0429,-0.0415,-0.0384,-0.0354,-0.0326,-0.0258,-0.0195,-0.0103,-0.0073,0.0023,0.0064,0.014,0.0099,0.0133,0.0133,0.0134,0.0134,0.0134,0.0134,-0.0383,-0.0357,-0.0328,-0.0279,-0.0224,-0.0144,-0.0039,0.0014,0.0132,0.0169,0.0146,0.0025,0.0143,0.0141,0.014,0.0139,0.0138,0.0138,0.0137,-0.0344,-0.0333,-0.0297,-0.023,-0.013,-0.0042,0.0028,0.012,0.018,0.0203,0.0123,0.0159,0.0103,0.0212,0.0212,0.0212,0.0211,0.0211,0.0211,-0.0321,-0.0297,-0.0253,-0.017,-0.0119,-0.0026,0.0076,0.0083,0.0143,0.0165,0.0224,0.0164,0.0161,0.0107,0.0209,0.021,0.021,0.021,0.021,-0.0288,-0.0276,-0.0232,-0.0191,-0.0103,-0.0065,0.0017,0.0033,0.003,0.0019,0.0117,0.0122,0.0057,0.0056,-0.0005,0.0068,0.0067,0.0066,0,-0.027,-0.026,-0.0222,-0.0194,-0.016,-0.0093,-0.01,-0.0083,-0.0036,-0.0012,-0.0005,0.0105,0.011,0.0034,0.0032,-0.004,0,0,0,-0.0254,-0.025,-0.0225,-0.02,-0.0178,-0.0146,-0.01,-0.009,-0.0008,-0.0059,0.0045,0.0051,0.0065,0.0204,0.0114,0.0111,0.0017,0,0]},{"header":{"parameterUnit":"m.s-1","parameterCategory":2,"la1":30.2992,"la2":30.254,"lo1":-89.0895,"lo2":-89.0443,"dy":0.0025,"dx":0.0025,"nx":19,"ny":19,"refTime":"2026-04-24T09:00:00:Z","depth":"4","parameterNumber":3,"parameterNumberName":"V-component_of_CURRENTS"},"data":[0,0,0,0.0617,0.062,0.0731,0.0731,0.0831,0.0832,0,0,0,0,0,0,0,0,0,0,0,0.0585,0.0586,0.0617,0.062,0.0731,0.0731,0.0831,0.0832,0,0,0,0,0,0,0,0,0,0,0,0.0584,0.0586,0.0587,0.062,0.073,0.0731,0.0831,0.0758,0,0,0,0,0,0,0,0,0,0,0.0656,0.0626,0.0585,0.0587,0.0621,0.073,0.0731,0.0755,0.0762,0.0768,0,0.0794,0,0.0812,0.0837,0.0838,0,0,0,0.0622,0.0619,0.0654,0.0587,0.0622,0.073,0.0681,0.076,0.0768,0.0778,0.0795,0.0799,0.0813,0.0838,0.0838,0.0911,0.0911,0,0,0.0616,0.0599,0.0648,0.0659,0.0661,0.0678,0.0685,0.0765,0.0774,0.0796,0.0802,0.0815,0.0839,0.0839,0.0911,0.0911,0,0,0,0.0597,0.0594,0.0628,0.0655,0.0677,0.0681,0.0689,0.0771,0.0784,0.0803,0.0816,0.0839,0.084,0.0911,0.0911,0.0928,0,0,0,0.0593,0.0584,0.0625,0.0615,0.0676,0.0729,0.0692,0.0779,0.0788,0.0816,0.0839,0.0841,0.091,0.0911,0.0927,0.0924,0,0,0,0.0578,0.0582,0.0599,0.0614,0.0662,0.0729,0.0747,0.0781,0.0796,0.0838,0.0841,0.091,0.0911,0.0926,0.0923,0.0887,0,0,0,0.055,0.0583,0.0599,0.0632,0.0661,0.0708,0.0746,0.0801,0.0838,0.0839,0.091,0.0911,0.0926,0.0922,0.0888,0.0805,0,0,0,0.0574,0.0585,0.0602,0.0619,0.0649,0.0692,0.0751,0.0828,0.0843,0.0881,0.0883,0.0927,0.0923,0.0887,0.083,0,0,0,0,0.0597,0.0603,0.0616,0.0639,0.0676,0.0729,0.0804,0.0821,0.0881,0.0867,0.0931,0.0927,0.0904,0.0857,0.0913,0.0913,0.0913,0.0913,0.0913,0.0593,0.0605,0.0632,0.0664,0.0695,0.0765,0.0795,0.0835,0.0887,0.091,0.0944,0.0933,0.0886,0.0953,0.0953,0.0953,0.0953,0.0953,0.0953,0.0594,0.0607,0.0636,0.0692,0.0747,0.0819,0.0833,0.087,0.0904,0.0942,0.0919,0.0884,0.0955,0.0954,0.0954,0.0954,0.0954,0.0954,0.0954,0.0571,0.0585,0.0657,0.0735,0.0821,0.0897,0.0886,0.0916,0.0911,0.0906,0.0864,0.0927,0.0919,0.0926,0.0926,0.0926,0.0926,0.0926,0.0926,0.0535,0.0589,0.067,0.0779,0.0867,0.0921,0.0948,0.0908,0.091,0.0862,0.0939,0.0923,0.0924,0.0917,0.0923,0.0924,0.0924,0.0924,0.0924,0.0497,0.0575,0.0639,0.074,0.0874,0.0872,0.092,0.0843,0.0797,0.0733,0.0803,0.081,0.0784,0.0788,0.0775,0.074,0.0739,0.0738,0,0.0503,0.0525,0.0633,0.0716,0.0761,0.0814,0.0726,0.0701,0.0683,0.0674,0.0748,0.0828,0.0832,0.0805,0.0807,0.0792,0,0,0,0.0512,0.0517,0.0593,0.067,0.0723,0.0654,0.0682,0.066,0.0716,0.0652,0.0711,0.0718,0.0834,0.0916,0.0892,0.0893,0.088,0,0]}]]